Location: Del Amo
(33.8464°N, 118.2104°W)
Time: 20:10:54
(UTC+00:00)

S-56A Canister/Altair - Pass Details

Date: 17 September 2024
Orbit: 636 x 2487 km, 38.9° (Epoch: 14 October)

Event Time Altitude Azimuth Distance (km) Brightness Sun altitude
Rises 06:49:29 0° 291° (WNW) 4,080 11.6 -51.6°
Reaches altitude 10° 06:51:54 10° 289° (WNW) 3,321 11.0 -51.8°
Enters shadow 06:52:27 13° 289° (WNW) 3,153 10.9 -51.9°
Maximum altitude 07:00:31 72° 207° (SSW) 1,800 - -52.5°
Drops below altitude 10° 07:13:26 10° 126° (SE) 4,801 - -53.3°
Sets 07:17:38 0° 125° (SE) 5,972 - -53.5°
